Regional Weather Roundup
Issued by NWS

Home | Current Version | Previous Version | Text Only | Print | Product List | Glossary Off
Versions: 1 2 3 4 5 6 7 8 9 10 11 12 13 14 15 16 17 18 19 20 21 22 23 24 25 26 27 28 29 30 31 32 33 34 35 36 37 38 39 40 41 42 43 44 45 46 47 48 49 50

000
ASUS43 KLMK 050310
RWRKY
KENTUCKY REGIONAL WEATHER ROUNDUP
NATIONAL WEATHER SERVICE LOUISVILLE KY
1100 PM EDT FRI SEP 04 2015

NOTE "FAIR" INDICATES FEW OR NO CLOUDS BELOW 12,000 FEET
WITH NO SIGNIFICANT WEATHER AND/OR OBSTRUCTIONS TO VISIBILITY.

KYZ001>023-026-027-061>063-070>075-050400-
WESTERN AND SOUTH CENTRAL KENTUCKY

CITY           SKY/WX    TMP DP  RH WIND       PRES   REMARKS
PADUCAH        CLEAR     72  69  90 CALM      30.03R
HENDERSON      CLEAR     72  68  88 CALM      30.04R
OWENSBORO      CLEAR     78  71  79 CALM      30.06R
HOPKINSVILLE   CLEAR     78  68  72 N5        30.05R
BOWLING GREEN  CLEAR     75  66  73 CALM      30.06R
GLASGOW        CLEAR     72  71  99 CALM      30.08R
$$

KYZ024-025-028>034-038-045-046-053-050400-
NORTH CENTRAL KENTUCKY

CITY           SKY/WX    TMP DP  RH WIND       PRES   REMARKS
LOUISVILLE/SDF MOCLDY    79  64  60 E13       30.08R
LOUISVILLE/LOU PTCLDY    77  64  64 NE8       30.09R
FORT KNOX      CLEAR     73  68  84 CALM      30.07S
$$

KYZ035>037-039>044-047>052-055>060-089>105-050400-
NORTHEAST KENTUCKY

CITY           SKY/WX    TMP DP  RH WIND       PRES   REMARKS
LEXINGTON      MOCLDY    76  64  66 N15G26    30.14R THUNDER
COVINGTON      LGT RAIN  71  65  81 SE8       30.10F
FRANKFORT      MOCLDY    76  61  59 NE12      30.11F
$$

KYZ054-064>069-076>088-106>120-050400-
SOUTHEAST KENTUCKY

CITY           SKY/WX    TMP DP  RH WIND       PRES   REMARKS
JACKSON        CLEAR     76  66  71 CALM      30.12R
LONDON         CLEAR     75  65  70 CALM      30.11R
SOMERSET       PTCLDY    72  68  88 CALM      30.10S
MIDDLESBORO    CLEAR     71  68  88 CALM      30.12R
MONTICELLO     CLEAR     68  68 100 CALM      30.12R
$$



USA.gov is the U.S. government's official web portal to all federal, state and local government web resources and services.